HS6TUX-4 Weather Reports


time (UTC)temp
C
wind
direction
speed
KPH
gust
KPH
rain 1hr
cm
rain 24hr
cm
rain mn
cm
humidity
%
barometer
mb
20260508025912 36 0 0.0 0.0 0.00 0.00 0.00 99 734.0
20260508024344 35 0 0.0 0.0 0.00 0.00 0.00 99 733.0
20260508022816 36 0 0.0 0.0 0.00 0.00 0.00 99 735.0
20260508021248 37 0 0.0 0.0 0.00 0.00 0.00 99 736.0
20260508015720 36 0 0.0 0.0 0.00 0.00 0.00 99 735.0
20260508014152 33 0 0.0 0.0 0.00 0.00 0.00 99 732.0
20260508012624 31 0 0.0 0.0 0.00 0.00 0.00 99 729.0
20260508011056 32 0 0.0 0.0 0.00 0.00 0.00 99 731.0
20260508005527 35 0 0.0 0.0 0.00 0.00 0.00 99 733.0
20260508003959 30 0 0.0 0.0 0.00 0.00 0.00 99 728.0
20260508002431 30 0 0.0 0.0 0.00 0.00 0.00 99 728.0
20260508000903 29 0 0.0 0.0 0.00 0.00 0.00 99 727.0
20260507235335 29 0 0.0 0.0 0.00 0.00 0.00 99 727.0
20260507233806 28 0 0.0 0.0 0.00 0.00 0.00 99 725.0
20260507232238 27 0 0.0 0.0 0.00 0.00 0.00 99 725.0
20260507230709 27 0 0.0 0.0 0.00 0.00 0.00 99 724.0
20260507225141 27 0 0.0 0.0 0.00 0.00 0.00 99 724.0
20260507223613 27 0 0.0 0.0 0.00 0.00 0.00 99 725.0
20260507222045 27 0 0.0 0.0 0.00 0.00 0.00 99 724.0
20260507220517 27 0 0.0 0.0 0.00 0.00 0.00 99 724.0
20260507214949 27 0 0.0 0.0 0.00 0.00 0.00 99 724.0
20260507213420 27 0 0.0 0.0 0.00 0.00 0.00 99 724.0
20260507211852 27 0 0.0 0.0 0.00 0.00 0.00 99 724.0
20260507210324 27 0 0.0 0.0 0.00 0.00 0.00 99 724.0
20260507204755 27 0 0.0 0.0 0.00 0.00 0.00 99 724.0
20260507203227 27 0 0.0 0.0 0.00 0.00 0.00 99 725.0
20260507201659 27 0 0.0 0.0 0.00 0.00 0.00 99 725.0
20260507200131 28 0 0.0 0.0 0.00 0.00 0.00 99 725.0
20260507194602 27 0 0.0 0.0 0.00 0.00 0.00 99 725.0
20260507193034 27 0 0.0 0.0 0.00 0.00 0.00 99 725.0
20260507191506 27 0 0.0 0.0 0.00 0.00 0.00 99 725.0
20260507185938 28 0 0.0 0.0 0.00 0.00 0.00 99 725.0
20260507184410 28 0 0.0 0.0 0.00 0.00 0.00 99 726.0
20260507182841 28 0 0.0 0.0 0.00 0.00 0.00 99 726.0
20260507181313 28 0 0.0 0.0 0.00 0.00 0.00 99 726.0
20260507175745 28 0 0.0 0.0 0.00 0.00 0.00 99 726.0
20260507174217 28 0 0.0 0.0 0.00 0.00 0.00 99 726.0
20260507172648 28 0 0.0 0.0 0.00 0.00 0.00 99 726.0
20260507171119 28 0 0.0 0.0 0.00 0.00 0.00 99 726.0
20260507165551 28 0 0.0 0.0 0.00 0.00 0.00 99 726.0
20260507164023 28 0 0.0 0.0 0.00 0.00 0.00 99 726.0
20260507162455 28 0 0.0 0.0 0.00 0.00 0.00 99 726.0
20260507160927 28 0 0.0 0.0 0.00 0.00 0.00 99 726.0
20260507155358 28 0 0.0 0.0 0.00 0.00 0.00 99 726.0
20260507153830 28 0 0.0 0.0 0.00 0.00 0.00 99 726.0
20260507152305 28 0 0.0 0.0 0.00 0.00 0.00 99 726.0
20260507150734 28 0 0.0 0.0 0.00 0.00 0.00 99 726.0
20260507145206 28 0 0.0 0.0 0.00 0.00 0.00 99 726.0
20260507143638 28 0 0.0 0.0 0.00 0.00 0.00 99 726.0
20260507142110 29 0 0.0 0.0 0.00 0.00 0.00 99 726.0
20260507140542 29 0 0.0 0.0 0.00 0.00 0.00 99 726.0
20260507135013 29 0 0.0 0.0 0.00 0.00 0.00 99 726.0
20260507133445 29 0 0.0 0.0 0.00 0.00 0.00 99 727.0
20260507131916 30 0 0.0 0.0 0.00 0.00 0.00 99 727.0
20260507130348 30 0 0.0 0.0 0.00 0.00 0.00 99 727.0
20260507124819 30 0 0.0 0.0 0.00 0.00 0.00 99 727.0
20260507123250 30 0 0.0 0.0 0.00 0.00 0.00 99 728.0
20260507121722 30 0 0.0 0.0 0.00 0.00 0.00 99 728.0
20260507120153 30 0 0.0 0.0 0.00 0.00 0.00 99 728.0
20260507114624 30 0 0.0 0.0 0.00 0.00 0.00 99 728.0
20260507113055 31 0 0.0 0.0 0.00 0.00 0.00 99 728.0
20260507111526 31 0 0.0 0.0 0.00 0.00 0.00 99 728.0
20260507105957 31 0 0.0 0.0 0.00 0.00 0.00 99 729.0
20260507104428 33 0 0.0 0.0 0.00 0.00 0.00 99 731.0
20260507102900 33 0 0.0 0.0 0.00 0.00 0.00 99 731.0
20260507101331 33 0 0.0 0.0 0.00 0.00 0.00 99 731.0
20260507095802 32 0 0.0 0.0 0.00 0.00 0.00 99 730.0
20260507095125 32 0 0.0 0.0 0.00 0.00 0.00 99 730.0
20260507094227 32 0 0.0 0.0 0.00 0.00 0.00 99 730.0
20260507092658 32 0 0.0 0.0 0.00 0.00 0.00 99 730.0
20260507091111 32 0 0.0 0.0 0.00 0.00 0.00 99 730.0
20260507085543 31 0 0.0 0.0 0.00 0.00 0.00 99 729.0
20260507084015 30 0 0.0 0.0 0.00 0.00 0.00 99 728.0
20260507082447 30 0 0.0 0.0 0.00 0.00 0.00 99 728.0
20260507080918 30 0 0.0 0.0 0.00 0.00 0.00 99 728.0
20260507075350 31 0 0.0 0.0 0.00 0.00 0.00 99 729.0
20260507073822 31 0 0.0 0.0 0.00 0.00 0.00 99 729.0
20260507072254 31 0 0.0 0.0 0.00 0.00 0.00 99 729.0
20260507070725 30 0 0.0 0.0 0.00 0.00 0.00 99 728.0
20260507065156 32 0 0.0 0.0 0.00 0.00 0.00 99 730.0
20260507063628 34 0 0.0 0.0 0.00 0.00 0.00 99 732.0
20260507062100 36 0 0.0 0.0 0.00 0.00 0.00 99 735.0
20260507060531 38 0 0.0 0.0 0.00 0.00 0.00 99 737.0
20260507055002 40 0 0.0 0.0 0.00 0.00 0.00 99 739.0
20260507053434 43 0 0.0 0.0 0.00 0.00 0.00 92 743.0
20260507051905 42 0 0.0 0.0 0.00 0.00 0.00 95 742.0
20260507050337 44 0 0.0 0.0 0.00 0.00 0.00 90 744.0
20260507044809 43 0 0.0 0.0 0.00 0.00 0.00 92 742.0
20260507043240 43 0 0.0 0.0 0.00 0.00 0.00 93 743.0
20260507041712 42 0 0.0 0.0 0.00 0.00 0.00 99 742.0
20260507040144 43 0 0.0 0.0 0.00 0.00 0.00 99 743.0
20260507034616 41 0 0.0 0.0 0.00 0.00 0.00 99 740.0
20260507033048 40 0 0.0 0.0 0.00 0.00 0.00 99 739.0
20260507031519 43 0 0.0 0.0 0.00 0.00 0.00 98 743.0